Tiempo cada hora Bartoszowa

Hoy, 1 Marzo, Lunes

Tiempo Temperatura Precipitaciones Viento Presión Humedad
00:00 +3°C° 0 mm 3 mps 762 mmHg 86%
01:00 +3°C° 0 mm 3 mps 762 mmHg 87%
02:00 +2°C° 0 mm 3 mps 762 mmHg 87%
03:00 +3°C° 0 mm 2 mps 762 mmHg 87%
04:00 +3°C° 0 mm 2 mps 763 mmHg 88%
05:00 +4°C° 0 mm 1 mps 763 mmHg 88%
06:00 +4°C° 0 mm 1 mps 763 mmHg 88%
07:00 +4°C° 0 mm 1 mps 763 mmHg 88%
08:00 +4°C° 0 mm 1 mps 763 mmHg 86%
09:00 +4°C° 0 mm 1 mps 763 mmHg 84%
10:00 +4°C° 0 mm 1 mps 763 mmHg 82%
11:00 +5°C° 0 mm 1 mps 764 mmHg 79%
12:00 +6°C° 0 mm 1 mps 764 mmHg 76%
13:00 +7°C° 0 mm 1 mps 764 mmHg 73%
14:00 +7°C° 0 mm 1 mps 763 mmHg 72%
15:00 +8°C° 0 mm 1 mps 763 mmHg 71%
16:00 +8°C° 0 mm 1 mps 763 mmHg 70%
17:00 +7°C° 0 mm 1 mps 763 mmHg 75%
18:00 +6°C° 0 mm 1 mps 763 mmHg 80%
19:00 +5°C° 0 mm 1 mps 762 mmHg 85%
20:00 +5°C° 0 mm 1 mps 763 mmHg 86%
21:00 +4°C° 0 mm 1 mps 763 mmHg 87%
22:00 +4°C° 0 mm 1 mps 763 mmHg 88%
23:00 +4°C° 0 mm 1 mps 763 mmHg 87%

Mañana, 2 Marzo, Martes

Tiempo Temperatura Precipitaciones Viento Presión Humedad
00:00 +4°C° 0 mm 1 mps 763 mmHg 87%
01:00 +4°C° 0 mm 1 mps 763 mmHg 86%
02:00 +4°C° 0 mm 1 mps 763 mmHg 86%
03:00 +3°C° 0 mm 1 mps 762 mmHg 85%
04:00 +3°C° 0 mm 1 mps 762 mmHg 85%
05:00 +3°C° 0 mm 1 mps 762 mmHg 84%
06:00 +3°C° 0 mm 1 mps 762 mmHg 83%
07:00 +3°C° 0 mm 1 mps 763 mmHg 82%
08:00 +5°C° 0 mm 1 mps 762 mmHg 76%
09:00 +7°C° 0 mm 1 mps 762 mmHg 70%
10:00 +9°C° 0 mm 1 mps 762 mmHg 64%
11:00 +10°C° 0 mm 1 mps 762 mmHg 60%
12:00 +12°C° 0 mm 1 mps 762 mmHg 56%
13:00 +13°C° 0 mm 1 mps 762 mmHg 51%
14:00 +13°C° 0 mm 1 mps 762 mmHg 53%
15:00 +13°C° 0 mm 1 mps 761 mmHg 54%
16:00 +13°C° 0 mm 1 mps 761 mmHg 56%
17:00 +11°C° 0 mm 1 mps 761 mmHg 60%
18:00 +9°C° 0 mm 0 mps 761 mmHg 65%
19:00 +7°C° 0 mm 0 mps 761 mmHg 70%
20:00 +7°C° 0 mm 0 mps 761 mmHg 72%
21:00 +6°C° 0 mm 0 mps 761 mmHg 74%
22:00 +6°C° 0 mm 0 mps 761 mmHg 76%
23:00 +5°C° 0 mm 0 mps 761 mmHg 77%

Pasado mañana, 3 Marzo, Miércoles

Tiempo Temperatura Precipitaciones Viento Presión Humedad
00:00 +5°C° 0 mm 0 mps 761 mmHg 79%
01:00 +5°C° 0 mm 0 mps 761 mmHg 80%
02:00 +4°C° 0 mm 0 mps 761 mmHg 80%
03:00 +5°C° 0 mm 1 mps 760 mmHg 80%
04:00 +5°C° 0 mm 1 mps 760 mmHg 81%
05:00 +5°C° 0 mm 1 mps 760 mmHg 80%
06:00 +5°C° 0 mm 1 mps 760 mmHg 79%
07:00 +4°C° 0 mm 1 mps 760 mmHg 79%
08:00 +6°C° 0 mm 1 mps 759 mmHg 72%
09:00 +8°C° 0 mm 1 mps 759 mmHg 65%
10:00 +10°C° 0 mm 1 mps 759 mmHg 58%
11:00 +11°C° 0 mm 1 mps 758 mmHg 53%
12:00 +13°C° 0 mm 1 mps 758 mmHg 48%
13:00 +14°C° 0 mm 1 mps 758 mmHg 44%
14:00 +14°C° 0 mm 1 mps 757 mmHg 45%
15:00 +14°C° 0 mm 1 mps 756 mmHg 46%
16:00 +14°C° 0 mm 1 mps 755 mmHg 47%
17:00 +12°C° 0 mm 2 mps 755 mmHg 53%
18:00 +9°C° 0 mm 2 mps 755 mmHg 58%
19:00 +7°C° 0 mm 3 mps 755 mmHg 64%
20:00 +7°C° 0 mm 3 mps 754 mmHg 67%
21:00 +5°C° 0 mm 3 mps 754 mmHg 70%
22:00 +5°C° 0 mm 3 mps 754 mmHg 73%
23:00 +5°C° 0 mm 3 mps 753 mmHg 74%

4 Marzo, Jueves

Tiempo Temperatura Precipitaciones Viento Presión Humedad
00:00 +4°C° 0 mm 3 mps 753 mmHg 74%
01:00 +4°C° 0 mm 3 mps 752 mmHg 75%
02:00 +4°C° 0 mm 3 mps 752 mmHg 76%
03:00 +4°C° 0 mm 3 mps 751 mmHg 77%
04:00 +4°C° 0 mm 3 mps 751 mmHg 79%
05:00 +4°C° 0 mm 3 mps 750 mmHg 79%
06:00 +4°C° 0 mm 3 mps 750 mmHg 80%
07:00 +3°C° 0 mm 3 mps 750 mmHg 81%
08:00 +5°C° 0 mm 3 mps 749 mmHg 76%
09:00 +8°C° 0 mm 3 mps 749 mmHg 71%
10:00 +8°C° 0 mm 4 mps 748 mmHg 66%
11:00 +10°C° 0 mm 4 mps 748 mmHg 64%
12:00 +11°C° 0 mm 4 mps 748 mmHg 62%
13:00 +12°C° 0 mm 4 mps 747 mmHg 61%
14:00 +12°C° 0 mm 3 mps 747 mmHg 63%
15:00 +11°C° 0 mm 3 mps 746 mmHg 65%
16:00 +11°C° 0 mm 3 mps 745 mmHg 68%
17:00 +10°C° 0.3 mm 2 mps 745 mmHg 73%
18:00 +9°C° 0.3 mm 2 mps 745 mmHg 78%
19:00 +8°C° 0.3 mm 2 mps 745 mmHg 84%
20:00 +8°C° 0.6 mm 2 mps 745 mmHg 86%
21:00 +8°C° 0.6 mm 2 mps 745 mmHg 89%
22:00 +7°C° 0.6 mm 2 mps 744 mmHg 91%
23:00 +7°C° 0.9 mm 3 mps 744 mmHg 91%

5 Marzo, Viernes

Tiempo Temperatura Precipitaciones Viento Presión Humedad
00:00 +5°C° 0.9 mm 3 mps 744 mmHg 91%
01:00 +5°C° 0.9 mm 3 mps 744 mmHg 92%
02:00 +4°C° 0.5 mm 4 mps 744 mmHg 92%
03:00 +3°C° 0.5 mm 4 mps 744 mmHg 93%
04:00 +2°C° 0.5 mm 5 mps 744 mmHg 93%
05:00 +1°C° 0.1 mm 5 mps 745 mmHg 93%
06:00 0°C° 0.1 mm 5 mps 746 mmHg 92%
07:00 0°C° 0.1 mm 5 mps 746 mmHg 92%
08:00 0°C° 0.1 mm 5 mps 747 mmHg 88%
09:00 -1°C° 0.1 mm 5 mps 748 mmHg 84%
10:00 -1°C° 0.1 mm 5 mps 748 mmHg 81%
11:00 0°C° 0.1 mm 5 mps 749 mmHg 75%
12:00 0°C° 0.1 mm 5 mps 749 mmHg 69%
13:00 +1°C° 0.1 mm 5 mps 750 mmHg 63%
14:00 +1°C° 0 mm 5 mps 750 mmHg 60%
15:00 +1°C° 0 mm 5 mps 750 mmHg 58%
16:00 +1°C° 0 mm 5 mps 751 mmHg 56%
17:00 0°C° 0 mm 4 mps 751 mmHg 60%
18:00 0°C° 0 mm 3 mps 752 mmHg 64%
19:00 -1°C° 0 mm 2 mps 752 mmHg 67%
20:00 -1°C° 0 mm 2 mps 753 mmHg 69%
21:00 -1°C° 0 mm 2 mps 754 mmHg 70%
22:00 -2°C° 0 mm 2 mps 754 mmHg 72%
23:00 -2°C° 0 mm 2 mps 755 mmHg 73%

6 Marzo, Sábado

Tiempo Temperatura Precipitaciones Viento Presión Humedad
00:00 -2°C° 0 mm 3 mps 755 mmHg 74%
01:00 -2°C° 0 mm 3 mps 755 mmHg 76%
02:00 -2°C° 0 mm 3 mps 756 mmHg 77%
03:00 -2°C° 0 mm 3 mps 756 mmHg 78%
04:00 -4°C° 0 mm 3 mps 756 mmHg 79%
05:00 -4°C° 0 mm 3 mps 757 mmHg 79%
06:00 -4°C° 0 mm 3 mps 758 mmHg 79%
07:00 -4°C° 0 mm 3 mps 758 mmHg 79%
08:00 -2°C° 0 mm 3 mps 759 mmHg 71%
09:00 -1°C° 0 mm 3 mps 759 mmHg 64%
10:00 0°C° 0 mm 3 mps 759 mmHg 56%
11:00 +1°C° 0.1 mm 3 mps 760 mmHg 52%
12:00 +2°C° 0.1 mm 3 mps 760 mmHg 48%
13:00 +2°C° 0.1 mm 3 mps 760 mmHg 44%
14:00 +2°C° 0.1 mm 3 mps 760 mmHg 46%
15:00 +2°C° 0.1 mm 3 mps 760 mmHg 47%
16:00 +1°C° 0.1 mm 4 mps 760 mmHg 49%
17:00 0°C° 0 mm 3 mps 760 mmHg 54%
18:00 -1°C° 0 mm 2 mps 761 mmHg 60%
19:00 -2°C° 0 mm 2 mps 761 mmHg 66%
20:00 -2°C° 0 mm 2 mps 761 mmHg 66%
21:00 0°C° 0 mm 1 mps 762 mmHg 66%
22:00 0°C° 0 mm 1 mps 762 mmHg 65%
23:00 0°C° 0 mm 1 mps 762 mmHg 64%
Mostrar más

Necesitamos Su Consentimiento

Meteoprog y nuestros Proveedores de Servicios pueden almacenar y acceder a sus datos personales como cookies, identificadores de dispositivo u otras tecnologías similares de su dispositivo y procesar dichos datos para personalizar contenido y anuncios, además de ofrecer funciones de redes sociales y analizar el tráfico.

  • Almacenar y/o acceder a información en su dispositivo

    Se puede almacenar o acceder a cookies, identificadores de dispositivo u otra información de su dispositivo para los fines anteriormente indicados.

  • Anuncios y contenido personalizados, medición de anuncios y contenido, percepciones del público, y desarrollo de productos

    Los anuncios y el contenido pueden personalizarse en base a su perfil. Se pueden añadir más datos para personalizar mejor los anuncios y contenidos. Se puede medir el rendimiento de los anuncios y contenidos. Se puede obtener la percepción sobre el público que ha visto los anuncios y contenidos. Dichos datos pueden usarse para desarrollar o mejorar la experiencia del usuario, sistemas y software.

Al hacer clic en ‘Estoy De Acuerdo’ usted permitirá el uso de las cookies, identificadores de dispositivo, balizas web u otras tecnologías similares indicadas. Su configuración puede cambiarse desde el navegador de su dispositivo.

Para ciertos fines, los intereses legítimos pueden ser considerados por encima del consentimiento. Puede leer más sobre ello en nuestra Política de Privacidad y Cookies.